Location: Carr Mill
(33.2054°N, 85.9439°W)
Time: 22:16:39
(UTC+00:00)

STARLINK-2618 - Pass Details

Date: 24 June 2021
Orbit: 348 x 351 km, 53.0° (Epoch: 04 August)

Event Time Altitude Azimuth Distance (km) Brightness Sun altitude
Exits shadow 09:27:47 - 287° (WNW) 1,428 5.4 -12.6°
Reaches altitude 10° 09:27:57 10° 290° (WNW) 1,387 5.4 -12.6°
Maximum altitude 09:29:45 14° 325° (NW) 1,163 5.3 -12.3°
Drops below altitude 10° 09:31:33 10° 1° (N) 1,392 6.3 -12.0°
Sets 09:34:18 0° 27° (NNE) 2,246 8.1 -11.6°
